Date String (YYYY-MM-DD hh:mm:ss) UTC,Instrument flags,Ambient pressure (hPa),Sample flow (lpm),Bypass flow (lpm),Sample temperature (°C),Ambient temperature (°C),ASC tube jacket temperature (°C),LED temperature (°C),Box temperature (°C),Sample RH (%),Span deviation,Mass concentration (μg/m³),Mass concentration (μg/m³),Mass concentration (μg/m³)
DateTimeUTC,F1_M11,P_M11,Q1_M11,Q2_M11,T1_M11,T2_M11,T3_M11,T4_M11,T5_M11,U1_M11,ZSPAN_M11,X0_M11,X2_M11,X1_M11
2022-09-30 16:00:00,,0826.5,5.00,0.00,30.3,26.3,00.0,39.0,32.0,19.5,0000.0,0011.67,0004.54,0003.77
2022-09-30 16:01:00,,0826.5,5.01,0.00,30.2,26.7,00.0,38.9,31.8,18.9,0000.0,0011.57,0004.48,0003.73
2022-09-30 16:02:00,,0826.5,5.01,0.00,30.1,27.0,00.0,38.9,31.7,18.8,0000.0,0011.68,0004.49,0003.70
2022-09-30 16:03:00,,0826.5,5.01,0.00,30.1,27.4,00.0,38.9,31.8,18.9,0000.0,0011.29,0004.48,0003.70
2022-09-30 16:04:00,,0826.5,5.00,0.00,30.1,27.8,00.0,38.9,31.9,19.3,0000.0,0010.70,0004.49,0003.69
2022-09-30 16:05:00,,0826.5,4.99,0.00,30.1,28.1,00.0,38.9,31.9,19.6,0000.0,0010.39,0004.54,0003.69
2022-09-30 16:06:00,,0826.5,5.01,0.00,30.1,28.3,00.0,38.8,32.0,19.7,0000.0,0010.67,0004.55,0003.69
2022-09-30 16:07:00,,0826.5,5.01,0.00,30.1,28.5,00.0,38.8,32.0,19.8,0000.0,0010.90,0004.62,0003.70
2022-09-30 16:08:00,,0826.5,4.99,0.00,30.1,28.7,00.0,38.8,32.0,19.9,0000.0,0011.47,0004.61,0003.70
2022-09-30 16:09:00,,0826.5,5.01,0.00,30.2,28.0,00.0,38.8,32.0,19.6,0000.0,0011.28,0004.60,0003.70
2022-09-30 16:10:00,,0826.5,5.01,0.00,30.1,26.7,00.0,38.8,31.9,20.2,0000.0,0011.13,0004.57,0003.69
2022-09-30 16:11:00,,0826.5,5.01,0.00,30.1,26.5,00.0,38.7,31.8,20.1,0000.0,0011.76,0004.63,0003.69
2022-09-30 16:12:00,,0826.5,5.00,0.00,30.0,26.8,00.0,38.7,31.7,19.9,0000.0,0012.39,0004.68,0003.71
2022-09-30 16:13:00,,0826.5,5.00,0.00,29.9,27.1,00.0,38.7,31.7,20.2,0000.0,0012.59,0004.72,0003.73
2022-09-30 16:14:00,,0826.5,5.00,0.00,29.9,27.5,00.0,38.6,31.7,20.4,0000.0,0013.68,0004.76,0003.74
2022-09-30 16:15:00,,0826.5,4.99,0.00,29.9,27.8,00.0,38.6,31.8,20.4,0000.0,0014.32,0004.81,0003.75
2022-09-30 16:16:00,,0826.5,5.00,0.00,29.9,28.1,00.0,38.6,31.8,20.6,0000.0,0014.44,0004.81,0003.76
2022-09-30 16:17:00,,0826.5,5.00,0.00,30.0,28.3,00.0,38.6,31.9,20.3,0000.0,0014.71,0004.82,0003.77
2022-09-30 16:18:00,,0826.5,5.00,0.00,30.0,28.5,00.0,38.6,31.9,19.6,0000.0,0014.67,0004.77,0003.77
2022-09-30 16:19:00,,0826.5,5.00,0.00,30.0,28.6,00.0,38.6,32.0,20.4,0000.0,0013.79,0004.76,0003.77
2022-09-30 16:20:00,,0826.5,4.99,0.00,30.0,28.8,00.0,38.7,32.0,21.2,0000.0,0014.06,0004.75,0003.78
2022-09-30 16:21:00,,0826.5,5.00,0.00,30.1,28.5,00.0,38.7,32.0,21.9,0000.0,0014.38,0004.78,0003.78
2022-09-30 16:22:00,,0826.5,5.00,0.00,30.1,27.2,00.0,38.6,31.9,22.1,0000.0,0014.26,0004.76,0003.78
2022-09-30 16:23:00,,0826.5,5.01,0.00,30.0,26.6,00.0,38.6,31.9,21.5,0000.0,0013.33,0004.73,0003.78
2022-09-30 16:24:00,,0826.5,5.01,0.00,30.0,26.8,00.0,38.6,31.8,21.6,0000.0,0013.12,0004.65,0003.77
2022-09-30 16:25:00,,0826.5,5.00,0.00,29.9,27.2,00.0,38.5,31.7,21.5,0000.0,0012.86,0004.62,0003.77
2022-09-30 16:26:00,,0826.5,4.99,0.00,29.9,27.5,00.0,38.5,31.7,21.9,0000.0,0012.17,0004.57,0003.76
2022-09-30 16:27:00,,0826.5,4.99,0.00,29.9,27.9,00.0,38.5,31.7,21.7,0000.0,0012.20,0004.56,0003.75
2022-09-30 16:28:00,,0826.5,4.99,0.00,29.9,28.1,00.0,38.6,31.8,21.6,0000.0,0012.17,0004.57,0003.76
2022-09-30 16:29:00,,0826.5,5.01,0.00,29.9,28.4,00.0,38.6,31.9,21.5,0000.0,0011.84,0004.61,0003.76
2022-09-30 16:30:00,,0826.5,4.99,0.00,30.0,28.6,00.0,38.6,31.9,21.0,0000.0,0012.39,0004.65,0003.78
2022-09-30 16:31:00,,0826.6,5.01,0.00,30.0,28.7,00.0,38.6,32.0,21.0,0000.0,0012.17,0004.64,0003.78
2022-09-30 16:32:00,,0826.5,5.00,0.00,30.0,28.0,00.0,38.6,31.9,21.2,0000.0,0011.24,0004.60,0003.77
2022-09-30 16:33:00,,0826.5,5.00,0.00,30.0,26.7,00.0,38.5,31.8,21.2,0000.0,0010.68,0004.58,0003.76
2022-09-30 16:34:00,,0826.5,5.00,0.00,29.9,26.6,00.0,38.5,31.7,20.6,0000.0,0010.72,0004.58,0003.75
2022-09-30 16:35:00,,0826.5,5.00,0.00,29.9,26.9,00.0,38.5,31.6,20.2,0000.0,0011.21,0004.57,0003.74
2022-09-30 16:36:00,,0826.5,4.99,0.00,29.8,27.2,00.0,38.5,31.5,20.1,0000.0,0011.33,0004.55,0003.73
2022-09-30 16:37:00,,0826.5,5.00,0.00,29.8,27.6,00.0,38.5,31.6,19.9,0000.0,0011.63,0004.52,0003.72
2022-09-30 16:38:00,,0826.5,5.00,0.00,29.8,27.9,00.0,38.5,31.7,19.4,0000.0,0011.15,0004.43,0003.70
2022-09-30 16:39:00,,0826.5,5.01,0.00,29.8,28.2,00.0,38.5,31.8,20.2,0000.0,0010.80,0004.34,0003.67
2022-09-30 16:40:00,,0826.5,4.99,0.00,29.9,28.4,00.0,38.5,31.8,19.8,0000.0,0011.11,0004.30,0003.65
2022-09-30 16:41:00,,0826.5,5.00,0.00,29.9,28.6,00.0,38.5,31.9,20.5,0000.0,0010.55,0004.27,0003.64
2022-09-30 16:42:00,,0826.5,5.01,0.00,29.9,28.0,00.0,38.5,31.9,20.7,0000.0,0010.63,0004.29,0003.62
2022-09-30 16:43:00,,0826.5,5.00,0.00,29.9,26.8,00.0,38.5,31.8,20.4,0000.0,0010.58,0004.31,0003.61
2022-09-30 16:44:00,,0826.5,5.00,0.00,29.9,26.5,00.0,38.4,31.7,19.9,0000.0,0010.53,0004.30,0003.60
2022-09-30 16:45:00,,0826.5,5.00,0.00,29.8,26.8,00.0,38.4,31.6,19.9,0000.0,0010.43,0004.28,0003.59
2022-09-30 16:46:00,,0826.5,4.99,0.00,29.8,27.2,00.0,38.4,31.5,19.8,0000.0,0010.07,0004.25,0003.57
2022-09-30 16:47:00,,0826.4,5.00,0.00,29.7,27.5,00.0,38.4,31.5,19.8,0000.0,0009.55,0004.25,0003.56
2022-09-30 16:48:00,,0826.5,5.01,0.00,29.7,27.8,00.0,38.4,31.6,19.7,0000.0,0009.11,0004.25,0003.55
2022-09-30 16:49:00,,0826.5,5.00,0.00,29.8,28.1,00.0,38.4,31.7,19.4,0000.0,0009.34,0004.27,0003.55
2022-09-30 16:50:00,,0826.5,4.99,0.00,29.8,28.3,00.0,38.4,31.8,19.2,0000.0,0009.28,0004.29,0003.54
2022-09-30 16:51:00,,0826.4,5.00,0.00,29.8,28.5,00.0,38.4,31.8,18.9,0000.0,0008.81,0004.28,0003.53
2022-09-30 16:52:00,,0826.4,5.00,0.00,29.9,28.1,00.0,38.4,31.8,18.7,0000.0,0008.57,0004.26,0003.52
2022-09-30 16:53:00,,0826.4,4.99,0.00,29.8,26.9,00.0,38.4,31.7,18.8,0000.0,0008.42,0004.20,0003.50
2022-09-30 16:54:00,,0826.4,4.99,0.00,29.8,26.4,00.0,38.4,31.7,19.0,0000.0,0008.24,0004.15,0003.51
2022-09-30 16:55:00,,0826.3,5.00,0.00,29.7,26.7,00.0,38.3,31.5,19.3,0000.0,0008.40,0004.15,0003.52
2022-09-30 16:56:00,,0826.3,5.01,0.00,29.7,27.0,00.0,38.3,31.4,19.3,0000.0,0008.85,0004.15,0003.53
2022-09-30 16:57:00,,0826.2,5.01,0.00,29.7,27.4,00.0,38.3,31.5,19.4,0000.0,0009.12,0004.17,0003.55
2022-09-30 16:58:00,,0826.2,4.99,0.00,29.7,27.7,00.0,38.3,31.5,20.4,0000.0,0008.78,0004.15,0003.56
2022-09-30 16:59:00,,0826.2,5.01,0.00,29.7,28.0,00.0,38.3,31.6,20.7,0000.0,0008.55,0004.14,0003.58
